Wetterstation 29328 Müden/Ö

Wetterdaten: aktuell Donnerstag, 18.10.2018 12:20
Datum Zeit Temp. A. Feuchte A. Luftdruck Regen Wind Richtung Richtung Windben
18.10.2018 12:20 14,9 C 83 % 1022,5 hPa 0,0 l/m 2,3 km/h (1 Bft) NO 34 6,4 km/h (2 Bft)
18.10.2018 12:15 15,0 C 84 % 1022,4 hPa 0,0 l/m 1,5 km/h (1 Bft) N 5 4,8 km/h (1 Bft)
18.10.2018 12:10 15,0 C 83 % 1022,4 hPa 0,0 l/m 1,8 km/h (1 Bft) N 9 6,4 km/h (2 Bft)
18.10.2018 12:05 15,1 C 83 % 1022,3 hPa 0,0 l/m 0,5 km/h (0 Bft) N-NO 22 3,2 km/h (1 Bft)
18.10.2018 12:00 15,2 C 83 % 1022,2 hPa 0,0 l/m 1,4 km/h (1 Bft) N-NO 18 6,4 km/h (2 Bft)
18.10.2018 11:55 15,1 C 84 % 1022,2 hPa 0,0 l/m 0,2 km/h (0 Bft) N 5 3,2 km/h (1 Bft)
18.10.2018 11:50 14,7 C 84 % 1022,3 hPa 0,0 l/m 0,8 km/h (0 Bft) N 5 4,8 km/h (1 Bft)
18.10.2018 11:45 14,4 C 85 % 1022,4 hPa 0,0 l/m 1,6 km/h (1 Bft) N-NO 26 4,8 km/h (1 Bft)
18.10.2018 11:40 14,6 C 86 % 1022,4 hPa 0,0 l/m 1,9 km/h (1 Bft) N-NO 27 6,4 km/h (2 Bft)
18.10.2018 11:35 14,4 C 86 % 1022,3 hPa 0,0 l/m 1,8 km/h (1 Bft) NO 46 6,4 km/h (2 Bft)
18.10.2018 11:30 14,4 C 86 % 1022,2 hPa 0,0 l/m 1,1 km/h (1 Bft) N-NO 13 6,4 km/h (2 Bft)
18.10.2018 11:25 14,4 C 86 % 1022,2 hPa 0,0 l/m 1,5 km/h (1 Bft) N-NO 17 6,4 km/h (2 Bft)
18.10.2018 11:20 14,5 C 86 % 1022,1 hPa 0,0 l/m 3,2 km/h (1 Bft) N-NW 333 8,0 km/h (2 Bft)
18.10.2018 11:15 14,5 C 86 % 1022,1 hPa 0,0 l/m 3,2 km/h (1 Bft) N-NO 19 11,3 km/h (2 Bft)
18.10.2018 11:10 14,5 C 86 % 1022,0 hPa 0,0 l/m 2,0 km/h (1 Bft) N-NO 17 6,4 km/h (2 Bft)
18.10.2018 11:05 14,5 C 86 % 1022,0 hPa 0,0 l/m 1,8 km/h (1 Bft) NO 34 4,8 km/h (1 Bft)
18.10.2018 11:00 14,6 C 87 % 1022,0 hPa 0,0 l/m 1,9 km/h (1 Bft) N 5 4,8 km/h (1 Bft)
18.10.2018 10:55 14,6 C 86 % 1022,0 hPa 0,0 l/m 2,4 km/h (1 Bft) N-NO 21 8,0 km/h (2 Bft)
18.10.2018 10:50 14,7 C 86 % 1022,1 hPa 0,0 l/m 2,9 km/h (1 Bft) N-NO 20 8,0 km/h (2 Bft)
18.10.2018 10:45 14,8 C 87 % 1022,0 hPa 0,0 l/m 3,4 km/h (1 Bft) N-NW 342 12,9 km/h (3 Bft)
18.10.2018 10:40 14,4 C 88 % 1022,0 hPa 0,0 l/m 3,6 km/h (1 Bft) N-NO 24 6,4 km/h (2 Bft)
18.10.2018 10:35 14,1 C 89 % 1022,0 hPa 0,0 l/m 3,3 km/h (1 Bft) N 5 14,5 km/h (3 Bft)
18.10.2018 10:30 14,0 C 90 % 1022,1 hPa 0,0 l/m 2,4 km/h (1 Bft) N-NO 31 8,0 km/h (2 Bft)
18.10.2018 10:25 13,9 C 91 % 1022,1 hPa 0,0 l/m 0,8 km/h (0 Bft) N 9 4,8 km/h (1 Bft)
18.10.2018 10:20 13,8 C 92 % 1022,2 hPa 0,0 l/m 1,3 km/h (1 Bft) NW 309 4,8 km/h (1 Bft)
18.10.2018 10:15 13,5 C 94 % 1022,1 hPa 0,0 l/m 0,8 km/h (0 Bft) N 11 4,8 km/h (1 Bft)
18.10.2018 10:10 13,2 C 94 % 1022,1 hPa 0,0 l/m 0,7 km/h (0 Bft) N-NW 336 3,2 km/h (1 Bft)
18.10.2018 10:05 13,1 C 95 % 1022,1 hPa 0,0 l/m 0,6 km/h (0 Bft) N 350 4,8 km/h (1 Bft)
18.10.2018 10:00 13,1 C 96 % 1022,0 hPa 0,0 l/m 2,5 km/h (1 Bft) N 5 6,4 km/h (2 Bft)
18.10.2018 09:55 12,9 C 96 % 1022,0 hPa 0,0 l/m 2,6 km/h (1 Bft) N-NW 347 6,4 km/h (2 Bft)
18.10.2018 09:50 12,7 C 97 % 1022,0 hPa 0,0 l/m 1,7 km/h (1 Bft) N-NO 13 4,8 km/h (1 Bft)
18.10.2018 09:45 12,7 C 97 % 1021,8 hPa 0,0 l/m 2,3 km/h (1 Bft) N-NW 340 6,4 km/h (2 Bft)
18.10.2018 09:40 12,6 C 97 % 1021,9 hPa 0,0 l/m 2,0 km/h (1 Bft) NW 313 9,7 km/h (2 Bft)
18.10.2018 09:35 12,6 C 97 % 1021,8 hPa 0,0 l/m 2,0 km/h (1 Bft) N-NW 346 4,8 km/h (1 Bft)
18.10.2018 09:30 12,6 C 97 % 1021,9 hPa 0,0 l/m 2,0 km/h (1 Bft) N-NW 337 4,8 km/h (1 Bft)
18.10.2018 09:25 12,6 C 97 % 1021,8 hPa 0,0 l/m 2,1 km/h (1 Bft) N 5 8,0 km/h (2 Bft)
18.10.2018 09:20 12,6 C 97 % 1021,9 hPa 0,0 l/m 2,1 km/h (1 Bft) N-NW 329 9,7 km/h (2 Bft)
18.10.2018 09:15 12,5 C 97 % 1021,8 hPa 0,0 l/m 2,6 km/h (1 Bft) N 5 8,0 km/h (2 Bft)
18.10.2018 09:10 12,5 C 97 % 1021,7 hPa 0,0 l/m 2,0 km/h (1 Bft) N-NW 340 8,0 km/h (2 Bft)
18.10.2018 09:05 12,4 C 97 % 1021,6 hPa 0,0 l/m 0,8 km/h (0 Bft) NO 44 6,4 km/h (2 Bft)
18.10.2018 09:00 12,4 C 97 % 1021,6 hPa 0,0 l/m 0,8 km/h (0 Bft) N-NW 337 4,8 km/h (1 Bft)
18.10.2018 08:55 12,4 C 97 % 1021,6 hPa 0,0 l/m 1,3 km/h (1 Bft) W-NW 296 4,8 km/h (1 Bft)
18.10.2018 08:50 12,4 C 97 % 1021,5 hPa 0,0 l/m 1,2 km/h (1 Bft) NW 315 4,8 km/h (1 Bft)
18.10.2018 08:45 12,4 C 97 % 1021,5 hPa 0,0 l/m 1,4 km/h (1 Bft) NW 309 4,8 km/h (1 Bft)
18.10.2018 08:40 12,3 C 97 % 1021,4 hPa 0,0 l/m 1,8 km/h (1 Bft) NW 306 4,8 km/h (1 Bft)
18.10.2018 08:35 12,3 C 97 % 1021,4 hPa 0,0 l/m 0,1 km/h (0 Bft) W-NW 302 3,2 km/h (1 Bft)
18.10.2018 08:30 12,3 C 97 % 1021,3 hPa 0,0 l/m 0,6 km/h (0 Bft) NW 320 4,8 km/h (1 Bft)
18.10.2018 08:25 12,3 C 97 % 1021,3 hPa 0,0 l/m 0,0 km/h (0 Bft) N 355 0,0 km/h (0 Bft)
18.10.2018 08:20 12,4 C 97 % 1021,2 hPa 0,0 l/m 0,0 km/h (0 Bft) N 355 1,6 km/h (1 Bft)
18.10.2018 08:15 12,4 C 97 % 1021,2 hPa 0,0 l/m 0,0 km/h (0 Bft) N 355 0,0 km/h (0 Bft)
18.10.2018 08:10 12,4 C 97 % 1021,2 hPa 0,0 l/m 0,0 km/h (0 Bft) N 360 0,0 km/h (0 Bft)
18.10.2018 08:05 12,4 C 97 % 1021,0 hPa 0,0 l/m 0,0 km/h (0 Bft) N 360 0,0 km/h (0 Bft)
18.10.2018 08:00 12,4 C 97 % 1021,0 hPa 0,0 l/m 0,0 km/h (0 Bft) N 360 1,6 km/h (1 Bft)
18.10.2018 07:55 12,4 C 97 % 1020,9 hPa 0,0 l/m 0,6 km/h (0 Bft) N 360 3,2 km/h (1 Bft)
18.10.2018 07:50 12,5 C 97 % 1020,9 hPa 0,0 l/m 0,0 km/h (0 Bft) N-NW 344 0,0 km/h (0 Bft)
18.10.2018 07:45 12,5 C 97 % 1020,9 hPa 0,0 l/m 0,0 km/h (0 Bft) N-NW 344 1,6 km/h (1 Bft)
18.10.2018 07:40 12,6 C 97 % 1021,0 hPa 0,0 l/m 0,0 km/h (0 Bft) N-NW 332 0,0 km/h (0 Bft)
18.10.2018 07:35 12,6 C 97 % 1020,9 hPa 0,0 l/m 0,4 km/h (0 Bft) N-NW 332 4,8 km/h (1 Bft)
18.10.2018 07:30 12,6 C 97 % 1020,9 hPa 0,0 l/m 0,2 km/h (0 Bft) N-NO 13 3,2 km/h (1 Bft)
18.10.2018 07:25 12,6 C 97 % 1020,9 hPa 0,0 l/m 0,6 km/h (0 Bft) N-NO 22 3,2 km/h (1 Bft)
18.10.2018 07:20 12,6 C 97 % 1020,9 hPa 0,0 l/m 1,3 km/h (1 Bft) N 5 4,8 km/h (1 Bft)
_ Min-Zeit 02:45 12:00 00:00 - 00:00 - - 00:00
Minimum _ 8,1 C 83 % 1019,7 hPa - 0,0 km/h (0 Bft) - - 0,0 km/h (0 Bft)
_ Max-Zeit 12:00 04:05 12:20 00:00 10:40 - - 10:35
Maximum _ 15,2 C 97 % 1022,5 hPa 0,0 l/m 3,6 km/h
N-NO (1 Bft)
- - 14,5 km/h
N (3 Bft)
Durchschnitt _ 11,6 C 94 % 1020,8 hPa #0,0 l/m 0,6 km/h (0 Bft) N-NO - 2,3 km/h (1 Bft)

nach oben

Copyright 2006 - 2018 fr den gesamten Inhalt der Webseite